Change the Weather History Date:

Thursday, July 11, 2013

  Actual Average Record
Temperature  
Mean Temperature 94 °F -  
Max Temperature 106 °F 93 °F 106 °F (2013)
Min Temperature 84 °F 73 °F 72 °F (1999)
Cooling Degree Days 30    
Growing Degree Days 44 (Base 50)    
Moisture  
Dew Point 64 °F    
Average Humidity 42    
Maximum Humidity 55    
Minimum Humidity 22    
Precipitation  
Precipitation 0.00 in - - ()
Sea Level Pressure  
Sea Level Pressure 29.93 in    
Wind  
Wind Speed 8 mph (South)    
Max Wind Speed 13 mph    
Max Gust Speed 17 mph    
Visibility 10 miles    
Events Thunderstorm    
Averages and records for this station are not official NWS values.
T = Trace of Precipitation, MM = Missing Value Source: NWS Daily Summary

Daily Weather History Graph

Daily Weather History Graph

Search for Another Location

Airport or City:

Trip Planner

Search our weather history database for the weather conditions in past years. The results will help you decide how hot, cold, wet, or windy it might be!

Date:

Astronomy

Jul. 11, 2013 Rise Set
Actual Time 6:30 AM CDT 8:39 PM CDT
Civil Twilight 6:02 AM CDT 9:08 PM CDT
Nautical Twilight 5:27 AM CDT 9:42 PM CDT
Astronomical Twilight 4:50 AM CDT 10:19 PM CDT
Moon 9:37 AM CDT (7/11) 10:36 PM CDT (7/11)
Length of Visible Light 15h 05m
Length of Day
14h 09m
Waxing Crescent, 11% of the Moon is Illuminated
Jul 11
Waxing Crescent
Jul 15
First Quarter
Jul 22
Full
Jul 29
Last Quarter
Aug 6
New

Hourly Weather History & Observations

Time (CDT) Temp. Heat Index Dew Point Humidity Pressure Visibility Wind Dir Wind Speed Gust Speed Precip Events Conditions
12:52 AM 89.1 °F 89.0 °F 61.0 °F 39% 29.94 in 10.0 mi South 8.1 mph - N/A   Clear
1:52 AM 88.0 °F 88.4 °F 62.1 °F 42% 29.95 in 10.0 mi South 10.4 mph - N/A   Clear
2:52 AM 88.0 °F 89.3 °F 64.0 °F 45% 29.95 in 10.0 mi South 12.7 mph - N/A   Clear
3:52 AM 87.1 °F 88.9 °F 64.9 °F 48% 29.95 in 10.0 mi SSW 11.5 mph - N/A   Clear
4:52 AM 84.9 °F 87.1 °F 66.0 °F 53% 29.95 in 10.0 mi South 8.1 mph - N/A   Partly Cloudy
5:52 AM 84.0 °F 86.3 °F 66.0 °F 55% 29.95 in 10.0 mi South 5.8 mph - N/A   Scattered Clouds
5:59 AM 84.2 °F 86.6 °F 66.2 °F 55% 29.99 in 10.0 mi South 5.8 mph - N/A   Scattered Clouds
6:52 AM 84.0 °F 86.3 °F 66.0 °F 55% 29.95 in 10.0 mi South 6.9 mph - N/A   Scattered Clouds
7:52 AM 86.0 °F 88.8 °F 66.9 °F 53% 29.96 in 10.0 mi SSW 8.1 mph - N/A   Scattered Clouds
8:52 AM 89.1 °F 92.1 °F 66.9 °F 48% 29.97 in 10.0 mi SW 11.5 mph - N/A   Scattered Clouds
9:52 AM 91.9 °F 95.4 °F 66.9 °F 44% 29.97 in 10.0 mi WSW 11.5 mph - N/A   Mostly Cloudy
10:52 AM 95.0 °F 97.9 °F 66.0 °F 38% 29.96 in 10.0 mi West 9.2 mph - N/A   Scattered Clouds
11:52 AM 99.0 °F 100.5 °F 63.0 °F 30% 29.96 in 10.0 mi SW 6.9 mph - N/A   Scattered Clouds
12:52 PM 102.0 °F 104.6 °F 63.0 °F 28% 29.95 in 10.0 mi North 4.6 mph - N/A   Scattered Clouds
1:52 PM 102.0 °F 103.3 °F 61.0 °F 26% 29.93 in 10.0 mi Variable 4.6 mph - N/A   Scattered Clouds
2:52 PM 105.1 °F 105.7 °F 59.0 °F 22% 29.90 in 10.0 mi Variable 3.5 mph - N/A   Scattered Clouds
3:52 PM 102.0 °F 102.2 °F 59.0 °F 24% 29.88 in 10.0 mi Calm Calm - N/A   Scattered Clouds
4:16 PM 102.2 °F 103.6 °F 60.8 °F 26% 29.93 in 10.0 mi NNE 12.7 mph 17.3 mph N/A   Mostly Cloudy
4:52 PM 95.0 °F 97.0 °F 64.0 °F 36% 29.90 in 10.0 mi NW 6.9 mph - N/A Thunderstorm Thunderstorm
5:52 PM 90.0 °F 91.3 °F 64.0 °F 42% 29.88 in 10.0 mi SSE 8.1 mph - N/A Thunderstorm Thunderstorm
6:22 PM 91.4 °F 93.2 °F 64.4 °F 41% 29.93 in 10.0 mi SSE 6.9 mph - N/A   Mostly Cloudy
6:52 PM 93.0 °F 94.6 °F 64.0 °F 38% 29.88 in 10.0 mi South 8.1 mph - N/A   Mostly Cloudy
7:52 PM 91.0 °F 95.2 °F 68.0 °F 47% 29.91 in 10.0 mi ESE 6.9 mph - N/A   Mostly Cloudy
8:52 PM 89.1 °F 91.0 °F 64.9 °F 45% 29.92 in 10.0 mi SE 11.5 mph - N/A   Mostly Cloudy
9:52 PM 87.1 °F 89.2 °F 66.0 °F 49% 29.91 in 10.0 mi SSE 8.1 mph - N/A   Scattered Clouds
10:52 PM 84.9 °F 87.1 °F 66.0 °F 53% 29.92 in 10.0 mi South 6.9 mph - N/A   Clear
11:52 PM 84.0 °F 86.3 °F 66.0 °F 55% 29.93 in 10.0 mi SSE 6.9 mph - N/A   Clear